Regional Weather Roundup
Issued by NWS

Home | Current Version | Previous Version | Text Only | Print | Product List | Glossary Off
Versions: 1 2 3 4 5 6 7 8 9 10 11 12 13 14 15 16 17 18 19 20 21 22 23 24 25 26 27 28 29 30 31 32 33 34 35 36 37 38 39 40 41 42 43 44 45 46 47 48 49 50

000
ASUS45 KCYS 271110
RWRWY

WYOMING REGIONAL WEATHER ROUNDUP
NATIONAL WEATHER SERVICE CHEYENNE WY
500 AM MDT TUE SEP 27 2016

NOTE:  "FAIR" INDICATES FEW OR NO CLOUDS BELOW 12,000 FEET
WITH NO SIGNIFICANT WEATHER AND/OR OBSTRUCTIONS TO VISIBILITY.

WYZ001-271200-
YELLOWSTONE NATIONAL PARK

CITY           SKY/WX    TMP DP  RH WIND       PRES   REMARKS
LK YELLOWSTONE   N/A     30  30 100 CALM      30.43S
W YELLOWSTONE  NOT AVBL

$$
WYZ002>013-054>058-071-098>099-271200-
NORTHERN WYOMING

CITY           SKY/WX    TMP DP  RH WIND       PRES   REMARKS
JACKSON        FAIR      37  36  93 N6        30.37S WCI  33
CODY           FAIR      46  43  87 CALM      30.21F
GREYBULL       FAIR      45  44  97 SE3       30.18S
WORLAND        FAIR      43  41  93 S5        30.18S
SHERIDAN       FAIR      44  37  76 CALM      30.11F
BUFFALO        FAIR      54  30  40 W7        30.17F
GILLETTE       FAIR      55  43  63 SW13      30.13F
HULETT         FAIR      46  43  87 SW8       30.14F
NEWCASTLE      FAIR      45  39  81 N7        30.17F

$$
WYZ014>020-022>026-101>103-271200-
CENTRAL WYOMING

CITY           SKY/WX    TMP DP  RH WIND       PRES   REMARKS
BIG PINEY      FAIR      38  34  85 CALM      30.38S
PINEDALE       FAIR      34  32  93 NW8       30.39S WCI  27
DUBOIS         FAIR      45  36  70 NW15      30.35S
LANDER         FAIR      43  37  79 SE3       30.25F
RIVERTON       FAIR      47  43  86 SW9       30.26F
CASPER         FAIR      44  41  89 SW10      30.24F
DOUGLAS        FAIR      37  36  96 NW5       30.22F WCI  33

$$
WYZ021-027>030-104>119-271200-
SOUTHERN WYOMING

CITY           SKY/WX    TMP DP  RH WIND       PRES   REMARKS
EVANSTON       FAIR      44  33  65 CALM      30.36S
FORT BRIDGER   FAIR      44  36  73 W7        30.38S
ROCK SPRINGS   FAIR      44  39  82 SE3       30.35S
DIXON          FAIR      37  33  86 CALM      30.38S
RAWLINS        FAIR      34  30  85 CALM      30.35S
SARATOGA       FAIR      37  34  87 CALM      30.37S
LARAMIE        FAIR      36  32  85 S7        30.35F WCI  30
CHEYENNE       FAIR      43  36  76 W5        30.27F
TORRINGTON     FAIR      39  38  96 NE3       30.17F
PINE BLUFFS    FAIR      36  34  93 MISG      30.25S

$$



USA.gov is the U.S. government's official web portal to all federal, state and local government web resources and services.